EHI
1 2 3 3 2 1 0 0 0 0 0 0 0 0 0 0 0 0 0 0 0 0 0 0 0 0 0 0 0 0 0 0 0 0 0 0 0 0 0 0 0 0 0
1 2 2 2 2 1 0 0 0 0 0 0 0 0 0 0 0 0 0 0 0 0 0 0 0 0 0 0 0 0 0 0 0 0 0 0 0 0 0 0 0 0 0
0 1 1 1 1 0 0 0 0 0 0 0 0 0 0 0 0 0 0 0 0 0 0 0 0 0 0 0 0 0 0 0 0 0 0 0 0 0 0 0 0 0 0
0 0 0 0 0 0 0 0 0 0 0 0 0 0 0 0 0 0 0 0 0 0 0 0 0 0 0 0 0 0 0 0 0 0 0 0 0 0 0 0 0 0 0
0 0 0 0 0 0 0 0 0 0 0 0 0 0 0 0 0 0 0 0 0 0 0 0 0 0 0 0 0 0 0 0 0 0 0 0 0 0 0 0 0 0 0
0 0 0 0 0 0 0 0 0 0 0 0 0 0 0 0 0 0 0 0 0 0 0 0 0 0 0 0 0 0 0 0 0 0 0 0 0 0 0 0 0 0 0
0 0 0 0 0 0 0 0 0 0 0 0 0 0 0 0 0 0 0 0 0 0 0 0 0 0 0 0 0 0 0 0 0 0 0 0 0 0 0 0 0 0 0
0 0 0 0 0 0 0 0 0 0 0 0 0 0 0 0 0 0 0 0 0 0 0 0 0 0 0 0 0 0 0 0 0 0 0 0 0 0 0 0 0 0 0
0 0 0 0 0 0 0 0 0 0 0 0 0 0 0 0 0 0 0 0 0 0 0 0 0 0 0 0 0 0 0 0 0 0 0 0 0 0 0 0 0 0 0
0 0 0 0 0 0 0 0 0 0 0 0 0 0 0 0 0 0 0 0 0 0 0 0 0 0 0 0 0 0 0 0 0 0 0 0 0 0 0 0 0 0 0
0 0 0 0 0 0 0 0 0 0 0 0 0 0 0 0 0 0 0 0 0 0 0 0 0 0 0 0 0 0 0 0 0 0 0 0 0 0 0 0 0 0 0
0 0 0 0 0 0 0 0 0 0 0 0 0 0 0 0 0 0 0 0 0 0 0 0 0 0 0 0 0 0 0 0 0 0 0 0 0 0 0 0 0 0 0
0 0 0 0 0 0 0 0 0 0 0 0 0 0 0 0 0 0 0 0 0 0 0 0 0 0 0 0 0 0 0 0 0 0 0 0 0 0 0 0 0 0 0
0 0 0 0 0 0 0 0 0 0 0 0 0 0 0 0 0 0 0 0 0 0 0 0 0 0 0 0 0 0 0 0 0 0 0 0 0 0 0 0 0 0 0
0 0 0 0 0 0 0 0 0 0 0 0 0 0 0 0 0 0 0 0 0 0 0 0 0 0 0 0 0 0 0 0 0 0 0 0 0 0 0 0 0 0 0
0 0 0 0 0 0 0 0 0 0 0 0 0 0 0 0 0 0 0 0 0 0 0 0 0 0 0 0 0 0 0 0 0 0 0 0 0 0 0 0 0 0 0
0 0 0 0 0 0 0 0 0 0 0 0 0 0 0 0 0 0 0 0 0 0 0 0 0 0 0 0 0 0 0 0 0 0 0 0 0 0 0 0 0 0 0
0 0 0 0 0 0 0 0 0 0 0 0 0 0 0 0 0 0 0 0 0 0 0 0 0 0 0 0 0 0 0 0 0 0 0 0 0 0 0 0 0 0 0
0 0 0 0 0 0 0 0 0 0 0 0 0 0 0 0 0 0 0 0 0 0 0 0 0 0 0 0 0 0 0 0 0 0 0 0 0 0 0 0 0 0 0
0 0 0 0 0 0 0 0 0 0 0 0 0 0 0 0 0 0 0 0 0 0 0 0 0 0 0 0 0 0 0 0 0 0 0 0 0 0 0 0 0 0 0
0 0 0 0 0 0 0 0 0 0 0 0 0 0 0 0 0 0 0 0 0 0 0 0 0 0 0 0 0 0 0 0 0 0 0 0 0 0 0 0 0 0 0
0 0 0 0 0 0 0 0 0 0 0 0 0 0 0 0 0 0 0 0 0 0 0 0 0 0 0 0 0 0 0 0 0 0 0 0 0 0 0 0 0 0 0
0 0 0 0 0 0 0 0 0 0 0 0 0 0 0 0 0 0 0 0 0 0 0 0 0 0 0 0 0 0 0 0 0 0 0 0 0 0 0 0 0 0 0
0 0 0 0 0 0 0 0 0 0 0 0 0 0 0 0 0 0 0 0 0 0 0 0 0 0 0 0 0 0 0 0 0 0 0 0 0 0 0 0 0 0 0
0 0 0 0 0 0 0 0 0 0 0 0 0 0 0 0 0 0 0 0 0 0 0 0 0 0 0 0 0 0 0 0 0 0 0 0 0 0 0 0 0 0 0
0 0 0 0 0 0 0 0 0 0 0 0 0 0 0 0 0 0 0 0 0 0 0 0 0 0 0 0 0 0 0 0 0 0 0 0 0 0 0 0 0 0 0
Wind_Speed
3 3 4 4 4 5 4 5 5 4 4 4 4 3 3 2 2 2 1 1 2 1 1 1 1 0 0 1 1 1 2 2 3 1 1 1 1 1 1 1 1 2 2
3 4 4 4 5 5 5 4 5 5 4 4 4 3 3 2 2 2 2 1 2 2 1 1 1 0 0 0 0 1 1 1 2 2 1 1 1 1 1 0 1 1 1
4 5 5 5 5 5 5 5 5 5 4 4 4 3 2 2 2 2 2 2 2 1 1 1 1 1 0 0 0 1 1 1 1 1 1 1 1 1 1 1 1 1 2
5 5 5 5 5 5 5 5 5 4 4 3 3 3 3 2 2 2 2 2 2 1 1 1 1 1 1 1 0 0 0 0 0 1 1 1 1 1 1 0 1 1 1
5 5 5 5 5 5 5 4 4 4 4 4 3 3 2 2 2 2 2 2 2 2 2 1 1 1 2 1 1 1 0 0 1 1 1 1 1 1 1 1 1 1 1
5 5 5 5 5 5 5 5 4 4 3 3 3 3 2 1 3 4 3 3 3 3 2 1 1 1 2 2 2 2 2 2 2 1 1 2 2 2 1 1 1 0 2
5 5 5 6 5 5 5 5 4 4 3 3 3 3 2 1 3 3 4 3 2 2 2 2 1 1 2 2 3 4 4 3 1 3 3 3 3 3 3 2 2 2 2
4 5 5 6 5 5 5 5 4 3 3 3 3 3 2 2 3 4 5 3 2 2 2 2 2 1 2 2 2 2 2 2 1 1 2 2 2 3 3 3 3 1 0
4 5 5 6 6 6 5 5 4 3 3 3 3 3 3 3 4 5 5 3 2 2 2 2 3 2 4 4 3 2 1 1 2 2 2 2 2 3 4 3 2 1 0
4 4 4 5 6 6 5 4 3 3 3 3 3 3 3 3 5 6 6 3 3 2 1 2 4 4 5 5 3 3 2 1 0 1 3 3 3 2 2 2 3 2 1
2 2 3 4 5 5 4 3 4 3 3 3 3 2 3 4 6 7 8 3 4 3 2 2 2 6 6 6 4 3 4 3 2 1 0 1 1 1 1 1 2 3 3
1 2 2 3 3 4 4 4 4 4 4 3 3 2 2 3 5 7 9 8 7 4 3 3 3 6 6 6 4 5 5 3 2 2 1 1 1 1 1 1 1 1 2
1 1 2 2 3 4 5 5 4 4 4 3 3 3 3 2 4 8 9 9 9 5 4 6 7 7 6 4 5 6 4 2 2 2 2 2 2 2 1 1 0 0 1
1 1 1 2 2 3 3 4 4 4 4 4 4 4 3 3 3 3 3 4 6 5 3 5 7 7 4 4 4 3 2 3 3 3 3 2 2 1 2 1 1 1 1
1 1 1 1 2 2 3 4 4 4 5 6 5 4 5 5 7 9 6 4 4 4 3 2 2 2 2 2 2 2 2 2 3 3 3 2 2 2 2 2 2 2 2
1 1 1 1 2 2 2 2 5 6 9 10 9 7 6 8 9 11 12 12 11 11 6 3 4 4 4 4 4 4 3 4 4 3 3 3 3 3 3 2 2 3 3
1 2 1 1 2 2 2 3 2 3 6 8 10 10 10 9 10 10 11 11 12 11 6 4 5 5 5 5 4 4 4 4 4 4 4 4 4 4 3 3 4 4 4
2 2 2 2 2 2 3 3 3 3 3 3 5 9 10 10 10 10 11 8 6 7 4 5 6 5 5 5 5 5 4 4 4 4 4 4 4 4 4 4 4 5 5
2 1 1 2 2 2 2 2 3 3 3 3 2 4 7 9 10 10 9 5 5 5 5 6 6 6 5 5 5 5 5 5 5 5 5 5 5 5 5 5 5 8 7
2 3 2 2 2 2 2 3 3 3 3 3 4 3 2 3 3 4 5 5 5 6 6 6 6 6 6 6 5 5 5 5 6 5 5 5 5 5 6 7 6 6 6
2 2 3 2 2 2 3 3 3 3 4 4 4 5 6 4 4 4 4 4 5 5 5 5 5 5 5 5 5 6 7 6 6 6 6 6 5 6 6 6 6 6 6
2 2 2 2 2 3 3 3 3 3 4 4 3 4 8 4 3 4 4 4 4 4 4 4 4 5 5 5 6 6 6 6 6 6 6 6 6 6 6 6 6 6 6
2 2 2 2 2 4 3 3 3 3 3 4 3 3 3 3 4 4 5 4 4 4 4 4 4 4 4 4 5 5 6 6 6 6 6 6 6 6 6 7 8 7 7
2 3 3 3 3 3 3 3 3 3 4 4 3 3 3 3 4 4 4 3 3 4 4 4 5 6 7 5 4 5 5 5 5 6 8 7 7 6 6 7 7 8 8
2 3 3 3 3 3 3 3 3 4 4 4 3 3 3 4 4 4 4 4 4 4 5 4 4 5 6 7 6 6 9 11 10 7 6 7 7 7 7 7 7 8 8
2 3 3 3 3 3 3 3 3 4 4 4 3 3 4 4 4 4 3 3 4 4 4 4 5 6 6 6 7 9 12 13 13 12 7 6 7 7 7 7 9 8 9
Wind_Direction
142 137 130 130 128 125 128 133 131 126 129 132 137 133 133 130 128 133 148 148 163 177 164 165 215 214 226 265 249 232 238 234 243 198 117 128 130 120 76 46 43 31 3
142 129 127 125 122 122 123 122 122 124 126 126 122 119 124 132 138 147 155 148 163 177 174 159 213 170 254 299 276 249 246 240 221 222 171 149 135 144 121 92 30 19 345
135 131 129 130 130 131 131 128 125 127 123 116 116 122 133 139 140 143 146 145 147 155 159 162 180 166 232 314 279 263 267 265 218 186 163 115 101 106 93 28 10 349 331
141 139 142 146 144 139 134 131 130 129 126 124 123 132 137 131 128 127 126 132 128 118 115 128 135 156 190 195 219 279 279 239 127 141 139 128 125 107 108 137 295 318 322
148 150 157 150 141 135 134 133 131 132 136 135 129 126 127 134 145 142 143 145 141 129 108 105 113 138 166 165 157 188 163 168 155 155 156 139 158 157 188 184 209 305 304
159 163 154 144 141 143 143 139 137 136 134 133 139 145 149 157 164 164 155 151 152 154 154 142 124 102 97 85 91 105 135 166 185 176 187 196 203 194 166 159 142 104 279
166 163 157 154 153 155 149 144 149 148 141 139 143 144 149 171 178 175 164 144 152 166 172 171 169 137 90 73 66 53 41 48 142 177 191 208 197 192 170 166 174 189 228
173 170 166 162 162 158 153 158 159 153 155 160 163 159 158 191 190 181 163 139 145 168 178 178 174 182 176 145 117 80 43 20 27 107 180 203 205 188 177 172 169 153 293
182 183 178 171 169 167 170 173 167 160 164 168 167 168 177 195 196 188 162 141 158 179 188 186 182 195 206 181 149 140 88 352 35 82 130 154 161 160 148 122 125 111 269
203 193 179 173 174 178 180 173 164 161 170 168 173 179 187 197 202 199 182 161 174 187 197 212 209 207 211 196 172 171 193 226 210 30 33 34 36 48 120 142 154 151 177
198 170 167 171 175 175 168 163 160 159 161 170 180 194 199 206 212 213 205 180 185 190 199 212 229 223 219 213 199 193 214 199 173 156 121 44 35 37 46 103 153 160 173
138 153 165 170 170 163 161 162 162 164 171 182 189 211 221 218 218 223 221 212 198 190 204 208 222 227 227 228 221 216 222 190 151 161 188 216 223 229 225 198 184 181 194
136 164 172 168 169 166 168 171 171 175 184 193 196 212 223 217 226 230 229 223 215 202 204 212 220 226 231 236 237 232 220 175 171 197 219 226 221 211 185 171 226 261 285
150 184 176 171 176 175 175 179 185 189 194 198 203 213 218 217 220 223 223 225 221 216 208 222 228 230 228 229 242 243 206 191 194 209 217 212 187 182 195 191 202 229 284
180 193 187 185 185 191 196 200 201 208 203 201 207 204 205 221 223 216 206 206 198 199 178 178 187 199 218 225 227 227 217 216 222 206 204 207 208 208 214 198 193 193 223
225 225 215 207 201 197 202 228 227 224 228 227 223 216 221 228 232 228 227 225 221 209 196 198 210 214 221 224 227 228 219 219 219 213 211 212 216 218 223 212 207 213 236
244 246 238 223 215 212 208 212 238 247 239 237 234 232 232 234 235 233 231 229 227 216 211 210 217 219 222 224 224 223 224 221 212 212 217 218 218 219 219 222 222 230 242
263 247 237 229 228 226 224 223 223 230 246 253 242 240 241 239 237 234 230 223 225 217 210 214 219 220 219 220 222 224 227 221 214 218 221 220 215 217 223 227 226 230 241
271 255 243 234 230 229 226 225 228 231 238 247 250 251 244 244 241 236 226 214 214 218 219 221 222 221 221 221 222 222 221 221 218 215 221 221 216 216 226 229 230 241 242
276 274 272 251 241 237 230 228 230 232 234 236 240 239 228 219 224 229 221 215 219 224 225 226 225 223 222 222 222 221 221 224 223 222 224 222 218 217 227 231 230 233 237
277 271 271 264 246 242 238 236 237 236 237 239 241 239 229 218 226 229 228 227 227 229 229 229 228 226 226 224 222 223 224 226 224 223 223 222 218 221 227 231 233 234 239
265 264 262 259 256 250 246 240 240 243 247 251 256 254 249 236 230 234 235 235 234 233 231 231 233 229 224 221 220 222 226 228 227 225 224 222 220 223 226 229 233 235 238
259 266 269 268 264 264 260 247 245 248 251 254 255 250 246 240 240 242 244 243 239 237 232 228 235 239 234 227 223 221 226 230 227 223 225 225 222 223 224 228 231 235 238
256 260 262 262 260 256 255 254 253 254 254 254 251 247 247 247 249 252 253 252 248 246 241 236 236 241 241 239 235 232 233 236 230 227 225 228 228 228 228 232 234 237 240
254 258 260 257 258 260 260 259 257 258 258 256 252 252 253 252 254 256 255 252 252 250 248 245 244 246 249 248 245 243 248 250 246 240 229 229 232 231 232 237 239 242 241
259 262 266 264 260 258 257 258 261 262 261 261 257 253 252 252 253 256 256 252 254 256 256 250 246 249 256 258 257 259 263 261 258 254 246 236 234 236 234 239 240 243 244